Time,TemperatureF,DewpointF,PressureIn,WindDirection,WindDirectionDegrees,WindSpeedMPH,WindSpeedGustMPH,Humidity,HourlyPrecipIn,Conditions,Clouds,dailyrainin,SoftwareType,DateUTC
2013-02-16 00:00:00,33.8,31.7,29.89,NW,315,0.0,0.0,92,0.00,,OVC009,0.00,VWS V14.01,2013-02-16 05:00:00,
2013-02-16 00:05:00,34.0,31.9,29.89,NW,315,0.0,1.0,92,0.00,,OVC009,0.00,VWS V14.01,2013-02-16 05:05:00,
2013-02-16 00:10:00,34.0,31.9,29.89,NW,316,0.0,4.0,92,0.00,,OVC009,0.00,VWS V14.01,2013-02-16 05:10:00,
2013-02-16 00:15:00,34.1,32.0,29.90,NW,315,0.0,1.0,92,0.00,,OVC009,0.00,VWS V14.01,2013-02-16 05:15:00,
2013-02-16 00:20:00,34.1,32.3,29.90,NW,315,1.0,1.0,93,0.00,,OVC009,0.00,VWS V14.01,2013-02-16 05:20:00,
2013-02-16 00:23:00,34.1,32.3,29.90,NW,315,0.0,1.0,93,0.00,,OVC009,0.00,VWS V14.01,2013-02-16 05:23:00,
2013-02-16 00:28:00,34.1,32.3,29.90,NW,315,1.0,1.0,93,0.00,,OVC009,0.00,VWS V14.01,2013-02-16 05:28:00,
2013-02-16 00:33:00,34.1,32.3,29.90,NW,314,0.0,2.0,93,0.00,,OVC009,0.00,VWS V14.01,2013-02-16 05:33:00,
2013-02-16 00:38:00,34.1,32.3,29.90,NW,314,0.0,0.0,93,0.00,,OVC012,0.00,VWS V14.01,2013-02-16 05:38:00,
2013-02-16 00:43:00,34.0,32.2,29.90,NW,314,0.0,1.0,93,0.00,,OVC012,0.00,VWS V14.01,2013-02-16 05:43:00,
2013-02-16 00:48:00,33.8,32.0,29.89,NW,314,0.0,0.0,93,0.00,,OVC012,0.00,VWS V14.01,2013-02-16 05:48:00,
2013-02-16 00:53:00,33.8,32.0,29.89,NW,314,0.0,0.0,93,0.00,,OVC012,0.00,VWS V14.01,2013-02-16 05:53:00,
2013-02-16 00:58:00,33.8,32.0,29.89,NW,314,0.0,1.0,93,0.00,,OVC009,0.00,VWS V14.01,2013-02-16 05:58:00,
2013-02-16 01:03:00,33.8,32.0,29.88,NW,314,0.0,1.0,93,0.00,,OVC009,0.00,VWS V14.01,2013-02-16 06:03:00,
2013-02-16 01:08:00,33.7,31.9,29.88,NW,314,0.0,0.0,93,0.00,,OVC006,0.00,VWS V14.01,2013-02-16 06:08:00,
2013-02-16 01:13:00,33.7,31.9,29.88,NW,314,0.0,0.0,93,0.00,,OVC006,0.00,VWS V14.01,2013-02-16 06:13:00,
2013-02-16 01:18:00,33.7,31.9,29.88,NW,314,2.0,2.0,93,0.00,,OVC006,0.00,VWS V14.01,2013-02-16 06:18:00,
2013-02-16 01:23:00,33.5,31.7,29.88,NW,314,0.0,1.0,93,0.00,,OVC006,0.00,VWS V14.01,2013-02-16 06:23:00,
2013-02-16 01:28:00,33.5,31.7,29.88,NW,314,0.0,0.0,93,0.00,,OVC006,0.00,VWS V14.01,2013-02-16 06:28:00,
2013-02-16 01:33:00,33.4,31.6,29.88,NW,314,1.0,1.0,93,0.00,,OVC006,0.00,VWS V14.01,2013-02-16 06:33:00,
2013-02-16 01:38:00,33.4,31.9,29.88,NW,314,1.0,2.0,94,0.00,,OVC042,0.00,VWS V14.01,2013-02-16 06:38:00,
2013-02-16 01:43:00,33.4,31.9,29.88,NW,314,0.0,1.0,94,0.00,,OVC042,0.00,VWS V14.01,2013-02-16 06:43:00,
2013-02-16 01:48:00,33.4,31.9,29.88,NW,312,0.0,0.0,94,0.00,,OVC042,0.00,VWS V14.01,2013-02-16 06:48:00,
2013-02-16 01:53:00,33.4,31.9,29.88,NW,312,1.0,1.0,94,0.00,,OVC042,0.00,VWS V14.01,2013-02-16 06:53:00,
2013-02-16 01:58:00,33.4,31.9,29.88,NW,312,0.0,1.0,94,0.00,,BKN010,0.00,VWS V14.01,2013-02-16 06:58:00,
2013-02-16 02:03:00,33.4,31.9,29.88,NW,304,1.0,3.0,94,0.00,,BKN010,0.00,VWS V14.01,2013-02-16 07:03:00,
2013-02-16 02:08:00,33.4,31.9,29.88,West,280,0.0,2.0,94,0.00,,BKN010,0.00,VWS V14.01,2013-02-16 07:08:00,
2013-02-16 02:13:00,33.4,31.9,29.88,West,280,0.0,0.0,94,0.00,,BKN010,0.00,VWS V14.01,2013-02-16 07:13:00,
2013-02-16 02:18:00,33.4,31.9,29.87,West,280,1.0,1.0,94,0.00,,BKN010,0.00,VWS V14.01,2013-02-16 07:18:00,
2013-02-16 02:23:00,33.4,31.9,29.87,West,280,0.0,0.0,94,0.00,,BKN010,0.00,VWS V14.01,2013-02-16 07:23:00,
2013-02-16 02:28:00,33.4,32.1,29.87,West,280,0.0,0.0,95,0.00,,BKN010,0.00,VWS V14.01,2013-02-16 07:28:00,
2013-02-16 02:33:00,33.4,32.1,29.87,West,280,0.0,0.0,95,0.00,,BKN010,0.00,VWS V14.01,2013-02-16 07:33:00,
2013-02-16 02:38:00,33.4,32.1,29.87,West,280,0.0,0.0,95,0.00,,OVC017,0.00,VWS V14.01,2013-02-16 07:38:00,
2013-02-16 02:43:00,33.4,32.1,29.87,West,280,0.0,0.0,95,0.00,,OVC017,0.00,VWS V14.01,2013-02-16 07:43:00,
2013-02-16 02:48:00,33.2,31.9,29.87,West,280,0.0,0.0,95,0.00,,OVC017,0.00,VWS V14.01,2013-02-16 07:48:00,
2013-02-16 02:53:00,33.2,31.9,29.87,West,280,0.0,0.0,95,0.00,,OVC017,0.00,VWS V14.01,2013-02-16 07:53:00,
2013-02-16 02:58:00,33.2,31.9,29.87,West,280,0.0,0.0,95,0.00,,OVC013,0.00,VWS V14.01,2013-02-16 07:58:00,
2013-02-16 03:03:00,33.4,32.1,29.85,West,280,0.0,0.0,95,0.00,,OVC013,0.00,VWS V14.01,2013-02-16 08:03:00,
2013-02-16 03:08:00,33.4,32.1,29.85,West,280,0.0,0.0,95,0.00,,OVC013,0.00,VWS V14.01,2013-02-16 08:08:00,
2013-02-16 03:13:00,33.5,32.2,29.85,West,280,0.0,0.0,95,0.00,,OVC013,0.00,VWS V14.01,2013-02-16 08:13:00,
2013-02-16 03:18:00,33.5,32.2,29.84,West,280,0.0,0.0,95,0.00,,OVC013,0.00,VWS V14.01,2013-02-16 08:18:00,
2013-02-16 03:23:00,33.5,32.2,29.84,North,11,0.0,2.0,95,0.00,,OVC013,0.00,VWS V14.01,2013-02-16 08:23:00,
2013-02-16 03:28:00,33.7,32.4,29.84,North,11,0.0,0.0,95,0.00,,OVC013,0.00,VWS V14.01,2013-02-16 08:28:00,
2013-02-16 03:33:00,33.7,32.4,29.85,North,11,0.0,0.0,95,0.00,,OVC013,0.00,VWS V14.01,2013-02-16 08:33:00,
2013-02-16 03:38:00,33.7,32.4,29.85,North,11,0.0,2.0,95,0.00,,BKN044,0.00,VWS V14.01,2013-02-16 08:38:00,
2013-02-16 03:43:00,33.7,32.4,29.85,East,84,0.0,2.0,95,0.00,,BKN044,0.00,VWS V14.01,2013-02-16 08:43:00,
2013-02-16 03:48:00,33.7,32.4,29.84,East,82,0.0,0.0,95,0.00,,BKN044,0.00,VWS V14.01,2013-02-16 08:48:00,
2013-02-16 03:53:00,33.8,32.5,29.84,East,82,0.0,0.0,95,0.00,,BKN044,0.00,VWS V14.01,2013-02-16 08:53:00,
2013-02-16 03:58:00,33.8,32.5,29.84,East,82,0.0,0.0,95,0.00,,BKN047,0.00,VWS V14.01,2013-02-16 08:58:00,
2013-02-16 04:03:00,33.8,32.5,29.85,East,82,0.0,0.0,95,0.00,,BKN047,0.00,VWS V14.01,2013-02-16 09:03:00,
2013-02-16 04:08:00,33.8,32.5,29.85,East,82,0.0,0.0,95,0.00,,OVC044,0.00,VWS V14.01,2013-02-16 09:08:00,
2013-02-16 04:13:00,33.8,32.5,29.85,East,82,0.0,0.0,95,0.00,,OVC044,0.00,VWS V14.01,2013-02-16 09:13:00,
2013-02-16 04:18:00,33.8,32.5,29.86,North,0,0.0,1.0,95,0.00,,BKN047,0.00,VWS V14.01,2013-02-16 09:18:00,
2013-02-16 04:23:00,33.8,32.5,29.86,North,358,0.0,0.0,95,0.00,,BKN047,0.00,VWS V14.01,2013-02-16 09:23:00,
2013-02-16 04:28:00,34.0,32.7,29.86,North,358,0.0,2.0,95,0.00,,BKN047,0.00,VWS V14.01,2013-02-16 09:28:00,
2013-02-16 04:33:00,34.0,32.7,29.86,NNW,344,0.0,1.0,95,0.00,,BKN047,0.00,VWS V14.01,2013-02-16 09:33:00,
2013-02-16 04:38:00,34.0,32.7,29.86,NNW,342,1.0,3.0,95,0.00,,OVC013,0.00,VWS V14.01,2013-02-16 09:38:00,
2013-02-16 04:43:00,33.8,32.5,29.86,NNW,342,0.0,0.0,95,0.00,,OVC013,0.00,VWS V14.01,2013-02-16 09:43:00,
2013-02-16 04:48:00,33.8,32.5,29.85,NNW,342,0.0,0.0,95,0.00,,OVC013,0.00,VWS V14.01,2013-02-16 09:48:00,
2013-02-16 04:53:00,33.7,32.4,29.85,NNW,342,0.0,0.0,95,0.00,,OVC013,0.00,VWS V14.01,2013-02-16 09:53:00,
2013-02-16 04:58:00,33.7,32.4,29.85,NNW,342,0.0,0.0,95,0.00,,OVC008,0.00,VWS V14.01,2013-02-16 09:58:00,
2013-02-16 05:03:00,33.5,32.2,29.85,NNW,342,0.0,0.0,95,0.00,,OVC008,0.00,VWS V14.01,2013-02-16 10:03:00,
2013-02-16 05:08:00,33.4,32.1,29.85,NNW,342,0.0,0.0,95,0.00,,OVC008,0.00,VWS V14.01,2013-02-16 10:08:00,
2013-02-16 05:13:00,33.4,32.1,29.85,NNW,342,0.0,0.0,95,0.00,,OVC008,0.00,VWS V14.01,2013-02-16 10:13:00,
2013-02-16 05:18:00,33.2,31.9,29.86,NNW,342,0.0,0.0,95,0.00,,OVC008,0.00,VWS V14.01,2013-02-16 10:18:00,
2013-02-16 05:23:00,33.2,31.9,29.86,NNW,342,0.0,0.0,95,0.00,,OVC008,0.00,VWS V14.01,2013-02-16 10:23:00,
2013-02-16 05:28:00,33.2,31.9,29.86,NNW,342,0.0,0.0,95,0.00,,OVC008,0.00,VWS V14.01,2013-02-16 10:28:00,
2013-02-16 05:33:00,33.1,31.8,29.86,NNW,342,0.0,0.0,95,0.00,,OVC008,0.00,VWS V14.01,2013-02-16 10:33:00,
2013-02-16 05:38:00,33.1,31.8,29.86,NNW,342,0.0,0.0,95,0.00,,BKN024,0.00,VWS V14.01,2013-02-16 10:38:00,
2013-02-16 05:43:00,33.1,31.8,29.86,NNW,342,0.0,0.0,95,0.00,,BKN024,0.00,VWS V14.01,2013-02-16 10:43:00,
2013-02-16 05:48:00,33.1,31.8,29.85,NNW,342,0.0,0.0,95,0.00,,BKN024,0.00,VWS V14.01,2013-02-16 10:48:00,
2013-02-16 05:53:00,32.9,31.6,29.85,NNW,342,0.0,0.0,95,0.00,,BKN024,0.00,VWS V14.01,2013-02-16 10:53:00,
2013-02-16 05:58:00,32.9,31.6,29.85,NNW,342,0.0,0.0,95,0.00,,BKN050,0.00,VWS V14.01,2013-02-16 10:58:00,
2013-02-16 06:03:00,32.9,31.6,29.85,NNW,342,0.0,0.0,95,0.00,,BKN050,0.00,VWS V14.01,2013-02-16 11:03:00,
2013-02-16 06:08:00,32.9,31.6,29.85,NNW,342,0.0,0.0,95,0.00,,BKN050,0.00,VWS V14.01,2013-02-16 11:08:00,
2013-02-16 06:13:00,32.8,31.5,29.85,NNW,342,0.0,0.0,95,0.00,,BKN050,0.00,VWS V14.01,2013-02-16 11:13:00,
2013-02-16 06:18:00,32.8,31.5,29.86,NNW,342,0.0,0.0,95,0.00,,BKN050,0.00,VWS V14.01,2013-02-16 11:18:00,
2013-02-16 06:26:00,32.7,31.4,29.86,North,0,0.0,0.0,95,0.00,,,0.00,VWS V14.01,2013-02-16 11:26:00,
2013-02-16 06:31:00,32.5,31.0,29.86,North,358,0.0,2.0,94,0.00,,,0.00,VWS V14.01,2013-02-16 11:31:00,
2013-02-16 06:36:00,32.5,31.0,29.86,North,0,0.0,4.0,94,0.00,,FEW010,0.00,VWS V14.01,2013-02-16 11:36:00,
2013-02-16 06:41:00,32.7,30.9,29.86,NNE,17,4.0,4.0,93,0.00,,FEW010,0.00,VWS V14.01,2013-02-16 11:41:00,
2013-02-16 06:46:00,32.7,30.9,29.86,North,8,0.0,2.0,93,0.00,,FEW010,0.00,VWS V14.01,2013-02-16 11:46:00,
2013-02-16 06:51:00,32.7,30.6,29.86,North,358,0.0,4.0,92,0.00,,FEW010,0.00,VWS V14.01,2013-02-16 11:51:00,
2013-02-16 06:56:00,32.7,30.4,29.86,North,10,0.0,4.0,91,0.00,,SCT110,0.00,VWS V14.01,2013-02-16 11:56:00,
2013-02-16 07:01:00,32.7,30.1,29.86,North,6,0.0,2.0,90,0.00,,SCT110,0.00,VWS V14.01,2013-02-16 12:01:00,
2013-02-16 07:06:00,32.5,29.6,29.86,NNE,13,0.0,2.0,89,0.00,,SCT110,0.00,VWS V14.01,2013-02-16 12:06:00,
2013-02-16 07:11:00,32.5,29.4,29.86,NNE,13,2.0,10.0,88,0.00,,SCT110,0.00,VWS V14.01,2013-02-16 12:11:00,
2013-02-16 07:16:00,32.4,28.7,29.86,North,11,0.0,4.0,86,0.00,,SCT110,0.00,VWS V14.01,2013-02-16 12:16:00,
2013-02-16 07:21:00,32.4,28.4,29.86,North,6,4.0,5.0,85,0.00,,SCT110,0.00,VWS V14.01,2013-02-16 12:21:00,
2013-02-16 07:26:00,32.4,28.1,29.86,ENE,75,1.0,2.0,84,0.00,,SCT110,0.00,VWS V14.01,2013-02-16 12:26:00,
2013-02-16 07:31:00,32.2,27.6,29.86,NNE,15,0.0,3.0,83,0.00,,SCT110,0.00,VWS V14.01,2013-02-16 12:31:00,
2013-02-16 07:36:00,32.2,27.3,29.86,North,0,3.0,5.0,82,0.00,,FEW120,0.00,VWS V14.01,2013-02-16 12:36:00,
2013-02-16 07:41:00,32.2,27.3,29.86,NNE,31,0.0,0.0,82,0.00,,FEW120,0.00,VWS V14.01,2013-02-16 12:41:00,
2013-02-16 07:46:00,32.2,27.3,29.87,NNE,13,1.0,1.0,82,0.00,,FEW120,0.00,VWS V14.01,2013-02-16 12:46:00,
2013-02-16 07:51:00,32.2,27.0,29.87,NNE,15,0.0,5.0,81,0.00,,FEW120,0.00,VWS V14.01,2013-02-16 12:51:00,
2013-02-16 07:56:00,32.1,26.3,29.87,NE,49,4.0,5.0,79,0.00,,FEW120,0.00,VWS V14.01,2013-02-16 12:56:00,
2013-02-16 08:01:00,32.2,26.4,29.88,ENE,62,4.0,6.0,79,0.00,,FEW120,0.00,VWS V14.01,2013-02-16 13:01:00,
2013-02-16 08:06:00,32.2,25.8,29.88,NW,316,0.0,3.0,77,0.00,,CLR,0.00,VWS V14.01,2013-02-16 13:06:00,
2013-02-16 08:11:00,32.2,25.8,29.88,ENE,61,4.0,4.0,77,0.00,,CLR,0.00,VWS V14.01,2013-02-16 13:11:00,
2013-02-16 08:16:00,32.2,25.5,29.88,NNE,32,1.0,2.0,76,0.00,,CLR,0.00,VWS V14.01,2013-02-16 13:16:00,
2013-02-16 08:21:00,32.4,25.7,29.88,NE,36,5.0,5.0,76,0.00,,CLR,0.00,VWS V14.01,2013-02-16 13:21:00,
2013-02-16 08:26:00,32.4,25.7,29.88,ENE,60,0.0,9.0,76,0.00,,CLR,0.00,VWS V14.01,2013-02-16 13:26:00,
2013-02-16 08:31:00,32.5,25.8,29.87,ENE,65,1.0,1.0,76,0.00,,CLR,0.00,VWS V14.01,2013-02-16 13:31:00,
2013-02-16 08:36:00,32.7,26.0,29.87,NE,51,3.0,4.0,76,0.00,,FEW120,0.00,VWS V14.01,2013-02-16 13:36:00,
2013-02-16 08:41:00,32.5,25.5,29.87,NNE,22,2.0,4.0,75,0.00,,FEW120,0.00,VWS V14.01,2013-02-16 13:41:00,
2013-02-16 08:46:00,32.5,25.5,29.87,NE,55,0.0,6.0,75,0.00,,FEW120,0.00,VWS V14.01,2013-02-16 13:46:00,
2013-02-16 08:51:00,32.5,25.5,29.87,NE,42,2.0,6.0,75,0.00,,FEW120,0.00,VWS V14.01,2013-02-16 13:51:00,
2013-02-16 08:56:00,32.5,25.5,29.87,NNE,32,0.0,2.0,75,0.00,,FEW120,0.00,VWS V14.01,2013-02-16 13:56:00,
2013-02-16 09:01:00,32.5,25.1,29.87,North,0,0.0,1.0,74,0.00,,FEW120,0.00,VWS V14.01,2013-02-16 14:01:00,
2013-02-16 09:06:00,32.5,25.1,29.87,North,2,8.0,8.0,74,0.00,,FEW120,0.00,VWS V14.01,2013-02-16 14:06:00,
2013-02-16 09:11:00,32.4,24.7,29.87,NE,35,3.0,4.0,73,0.00,,FEW120,0.00,VWS V14.01,2013-02-16 14:11:00,
2013-02-16 09:16:00,32.4,24.4,29.87,NE,50,6.0,6.0,72,0.00,,FEW120,0.00,VWS V14.01,2013-02-16 14:16:00,
2013-02-16 09:21:00,32.4,24.4,29.87,NE,53,0.0,6.0,72,0.00,,FEW120,0.00,VWS V14.01,2013-02-16 14:21:00,
2013-02-16 09:26:00,32.4,24.1,29.87,East,84,3.0,6.0,71,0.00,,FEW120,0.00,VWS V14.01,2013-02-16 14:26:00,
2013-02-16 09:31:00,32.4,23.7,29.87,NE,48,0.0,3.0,70,0.00,,FEW120,0.00,VWS V14.01,2013-02-16 14:31:00,
2013-02-16 09:36:00,32.5,24.2,29.87,NE,52,2.0,4.0,71,0.00,,FEW100,0.00,VWS V14.01,2013-02-16 14:36:00,
2013-02-16 09:41:00,32.5,24.2,29.87,NE,52,3.0,4.0,71,0.00,,FEW100,0.00,VWS V14.01,2013-02-16 14:41:00,
2013-02-16 09:46:00,32.7,24.0,29.87,NE,53,1.0,5.0,70,0.00,,FEW100,0.00,VWS V14.01,2013-02-16 14:46:00,
2013-02-16 09:51:00,32.7,24.0,29.87,East,94,3.0,7.0,70,0.00,,FEW100,0.00,VWS V14.01,2013-02-16 14:51:00,
2013-02-16 09:56:00,32.8,23.8,29.87,ENE,57,4.0,6.0,69,0.00,,CLR,0.00,VWS V14.01,2013-02-16 14:56:00,
2013-02-16 10:01:00,32.8,24.1,29.87,NE,41,2.0,6.0,70,0.00,,CLR,0.00,VWS V14.01,2013-02-16 15:01:00,
2013-02-16 10:06:00,32.8,23.8,29.87,NNE,23,0.0,3.0,69,0.00,,CLR,0.00,VWS V14.01,2013-02-16 15:06:00,
2013-02-16 10:11:00,32.8,23.8,29.87,NE,52,1.0,4.0,69,0.00,,CLR,0.00,VWS V14.01,2013-02-16 15:11:00,
2013-02-16 10:16:00,32.8,23.8,29.87,East,82,2.0,5.0,69,0.00,,CLR,0.00,VWS V14.01,2013-02-16 15:16:00,
2013-02-16 10:21:00,32.8,24.1,29.87,North,7,2.0,5.0,70,0.00,,CLR,0.00,VWS V14.01,2013-02-16 15:21:00,
2013-02-16 10:26:00,32.9,24.2,29.87,NNE,27,4.0,7.0,70,0.00,,CLR,0.00,VWS V14.01,2013-02-16 15:26:00,
2013-02-16 10:31:00,33.1,24.4,29.86,North,358,1.0,2.0,70,0.00,,CLR,0.00,VWS V14.01,2013-02-16 15:31:00,
2013-02-16 10:36:00,33.1,24.4,29.86,NE,35,6.0,6.0,70,0.00,,FEW110,0.00,VWS V14.01,2013-02-16 15:36:00,
2013-02-16 10:41:00,33.2,24.5,29.86,NE,55,1.0,5.0,70,0.00,,FEW110,0.00,VWS V14.01,2013-02-16 15:41:00,
2013-02-16 10:46:00,33.5,24.8,29.86,North,0,7.0,9.0,70,0.00,,FEW110,0.00,VWS V14.01,2013-02-16 15:46:00,
2013-02-16 10:51:00,33.4,24.0,29.86,North,6,0.0,2.0,68,0.00,,FEW110,0.00,VWS V14.01,2013-02-16 15:51:00,
2013-02-16 10:56:00,33.7,25.0,29.86,East,96,5.0,5.0,70,0.00,,FEW110,0.00,VWS V14.01,2013-02-16 15:56:00,
2013-02-16 11:01:00,33.7,24.3,29.86,NE,46,4.0,5.0,68,0.00,,FEW110,0.00,VWS V14.01,2013-02-16 16:01:00,
2013-02-16 11:06:00,33.8,24.4,29.86,North,358,4.0,4.0,68,0.00,,FEW110,0.00,VWS V14.01,2013-02-16 16:06:00,
2013-02-16 11:11:00,33.7,24.3,29.86,North,9,1.0,6.0,68,0.00,,FEW110,0.00,VWS V14.01,2013-02-16 16:11:00,
2013-02-16 11:16:00,33.5,24.4,29.85,North,2,4.0,6.0,69,0.00,,FEW110,0.00,VWS V14.01,2013-02-16 16:16:00,
2013-02-16 11:21:00,33.5,24.8,29.85,ENE,59,1.0,2.0,70,0.00,,FEW110,0.00,VWS V14.01,2013-02-16 16:21:00,
2013-02-16 11:26:00,34.0,25.3,29.85,North,0,2.0,4.0,70,0.00,,FEW110,0.00,VWS V14.01,2013-02-16 16:26:00,
2013-02-16 11:31:00,34.1,24.7,29.85,East,89,0.0,6.0,68,0.00,,FEW110,0.00,VWS V14.01,2013-02-16 16:31:00,
2013-02-16 11:36:00,34.4,25.3,29.85,NW,317,2.0,7.0,69,0.00,,CLR,0.00,VWS V14.01,2013-02-16 16:36:00,
2013-02-16 11:41:00,34.3,24.9,29.85,North,4,3.0,6.0,68,0.00,,CLR,0.00,VWS V14.01,2013-02-16 16:41:00,
2013-02-16 11:46:00,34.3,24.9,29.85,North,358,3.0,8.0,68,0.00,,CLR,0.00,VWS V14.01,2013-02-16 16:46:00,
2013-02-16 11:51:00,34.3,24.9,29.85,North,8,1.0,5.0,68,0.00,,CLR,0.00,VWS V14.01,2013-02-16 16:51:00,
2013-02-16 11:56:00,34.3,25.2,29.85,North,0,4.0,6.0,69,0.00,,CLR,0.00,VWS V14.01,2013-02-16 16:56:00,
2013-02-16 12:01:00,34.6,25.8,29.84,North,0,2.0,2.0,70,0.00,,CLR,0.00,VWS V14.01,2013-02-16 17:01:00,
2013-02-16 12:06:00,34.7,26.3,29.84,North,0,5.0,6.0,71,0.00,,CLR,0.00,VWS V14.01,2013-02-16 17:06:00,
2013-02-16 12:11:00,35.0,26.2,29.84,NNW,347,2.0,5.0,70,0.00,,CLR,0.00,VWS V14.01,2013-02-16 17:11:00,
2013-02-16 12:17:00,35.0,25.9,29.84,WNW,283,2.0,6.0,69,0.00,,CLR,0.00,VWS V14.01,2013-02-16 17:17:00,
2013-02-16 12:22:00,34.9,25.4,29.84,NNW,330,5.0,11.0,68,0.00,,CLR,0.00,VWS V14.01,2013-02-16 17:22:00,
2013-02-16 12:27:00,34.7,25.6,29.84,North,358,5.0,5.0,69,0.00,,CLR,0.00,VWS V14.01,2013-02-16 17:27:00,
2013-02-16 12:32:00,34.7,25.6,29.83,North,0,3.0,4.0,69,0.00,,CLR,0.00,VWS V14.01,2013-02-16 17:32:00,
2013-02-16 12:37:00,34.7,25.9,29.83,North,354,4.0,4.0,70,0.00,,BKN120,0.00,VWS V14.01,2013-02-16 17:37:00,
2013-02-16 12:42:00,34.9,26.1,29.83,North,0,2.0,5.0,70,0.00,,BKN120,0.00,VWS V14.01,2013-02-16 17:42:00,
2013-02-16 12:47:00,35.2,26.8,29.82,NNE,30,4.0,4.0,71,0.00,,BKN120,0.00,VWS V14.01,2013-02-16 17:47:00,
2013-02-16 12:52:00,35.2,26.4,29.82,North,356,4.0,4.0,70,0.00,,BKN120,0.00,VWS V14.01,2013-02-16 17:52:00,
2013-02-16 12:57:00,34.9,25.8,29.82,North,0,0.0,3.0,69,0.00,,BKN120,0.00,VWS V14.01,2013-02-16 17:57:00,
2013-02-16 13:02:00,35.3,26.5,29.81,NW,321,2.0,5.0,70,0.00,,BKN120,0.00,VWS V14.01,2013-02-16 18:02:00,
2013-02-16 13:07:00,35.6,26.5,29.81,NNE,15,0.0,5.0,69,0.00,,BKN120,0.00,VWS V14.01,2013-02-16 18:07:00,
2013-02-16 13:12:00,35.8,27.0,29.81,NE,54,9.0,9.0,70,0.00,,BKN120,0.00,VWS V14.01,2013-02-16 18:12:00,
2013-02-16 13:17:00,35.5,26.0,29.81,NE,45,4.0,5.0,68,0.00,,BKN120,0.00,VWS V14.01,2013-02-16 18:17:00,
2013-02-16 13:22:00,35.5,26.4,29.81,NNE,13,2.0,5.0,69,0.00,,BKN120,0.00,VWS V14.01,2013-02-16 18:22:00,
2013-02-16 13:27:00,35.2,25.7,29.81,North,358,3.0,3.0,68,0.00,,BKN120,0.00,VWS V14.01,2013-02-16 18:27:00,
2013-02-16 13:32:00,35.2,26.1,29.80,NNW,333,4.0,6.0,69,0.00,,BKN120,0.00,VWS V14.01,2013-02-16 18:32:00,
2013-02-16 13:37:00,35.2,26.1,29.80,NNE,18,0.0,6.0,69,0.00,,FEW023,0.00,VWS V14.01,2013-02-16 18:37:00,
2013-02-16 13:42:00,35.5,26.7,29.80,North,9,0.0,6.0,70,0.00,,FEW023,0.00,VWS V14.01,2013-02-16 18:42:00,
2013-02-16 13:47:00,35.6,26.1,29.80,NE,54,5.0,7.0,68,0.00,,FEW023,0.00,VWS V14.01,2013-02-16 18:47:00,
2013-02-16 13:52:00,35.6,26.5,29.80,NNE,12,1.0,3.0,69,0.00,,FEW023,0.00,VWS V14.01,2013-02-16 18:52:00,
2013-02-16 13:57:00,35.6,26.5,29.80,North,351,4.0,6.0,69,0.00,,FEW026,0.00,VWS V14.01,2013-02-16 18:57:00,
2013-02-16 14:02:00,35.6,26.5,29.79,North,0,5.0,5.0,69,0.00,,FEW026,0.00,VWS V14.01,2013-02-16 19:02:00,
2013-02-16 14:07:00,35.8,26.3,29.79,NNW,338,4.0,5.0,68,0.00,,FEW026,0.00,VWS V14.01,2013-02-16 19:07:00,
2013-02-16 14:12:00,35.9,26.4,29.79,NE,55,4.0,5.0,68,0.00,,FEW026,0.00,VWS V14.01,2013-02-16 19:12:00,
2013-02-16 14:17:00,35.8,25.6,29.78,NE,46,4.0,8.0,66,0.00,,BKN023,0.00,VWS V14.01,2013-02-16 19:17:00,
2013-02-16 14:22:00,35.3,24.7,29.78,North,358,5.0,5.0,65,0.00,,BKN023,0.00,VWS V14.01,2013-02-16 19:22:00,
2013-02-16 14:27:00,35.2,25.4,29.78,North,358,0.0,4.0,67,0.00,,BKN023,0.00,VWS V14.01,2013-02-16 19:27:00,
2013-02-16 14:32:00,35.2,25.4,29.79,NNE,27,0.0,6.0,67,0.00,,BKN023,0.00,VWS V14.01,2013-02-16 19:32:00,
2013-02-16 14:37:00,35.2,25.7,29.79,North,0,2.0,2.0,68,0.00,,SCT050,0.00,VWS V14.01,2013-02-16 19:37:00,
2013-02-16 14:42:00,35.2,25.7,29.79,North,0,1.0,4.0,68,0.00,,SCT050,0.00,VWS V14.01,2013-02-16 19:42:00,
2013-02-16 14:47:00,35.3,25.8,29.79,NE,51,0.0,4.0,68,0.00,,SCT050,0.00,VWS V14.01,2013-02-16 19:47:00,
2013-02-16 14:52:00,35.2,25.4,29.79,North,358,3.0,4.0,67,0.00,,SCT050,0.00,VWS V14.01,2013-02-16 19:52:00,
2013-02-16 14:57:00,35.2,25.7,29.79,North,0,0.0,3.0,68,0.00,,FEW030,0.00,VWS V14.01,2013-02-16 19:57:00,
2013-02-16 15:02:00,35.2,25.4,29.80,North,1,1.0,5.0,67,0.00,,FEW030,0.00,VWS V14.01,2013-02-16 20:02:00,
2013-02-16 15:07:00,35.2,24.6,29.80,North,354,0.0,1.0,65,0.00,,FEW030,0.00,VWS V14.01,2013-02-16 20:07:00,
2013-02-16 15:12:00,35.0,24.1,29.80,North,6,5.0,7.0,64,0.00,,FEW030,0.00,VWS V14.01,2013-02-16 20:12:00,
2013-02-16 15:17:00,35.0,24.4,29.79,NNE,23,1.0,5.0,65,0.00,,FEW030,0.00,VWS V14.01,2013-02-16 20:17:00,
2013-02-16 15:22:00,34.9,24.3,29.79,North,8,4.0,5.0,65,0.00,,FEW030,0.00,VWS V14.01,2013-02-16 20:22:00,
2013-02-16 15:27:00,34.9,25.1,29.79,NNE,15,2.0,5.0,67,0.00,,FEW030,0.00,VWS V14.01,2013-02-16 20:27:00,
2013-02-16 15:32:00,34.7,24.5,29.78,North,0,6.0,7.0,66,0.00,,FEW030,0.00,VWS V14.01,2013-02-16 20:32:00,
2013-02-16 15:37:00,34.6,23.7,29.78,North,4,4.0,5.0,64,0.00,,FEW030,0.00,VWS V14.01,2013-02-16 20:37:00,
2013-02-16 15:42:00,34.4,23.9,29.78,North,11,7.0,7.0,65,0.00,,FEW030,0.00,VWS V14.01,2013-02-16 20:42:00,
2013-02-16 15:47:00,34.3,23.0,29.78,NNW,343,1.0,6.0,63,0.00,,FEW030,0.00,VWS V14.01,2013-02-16 20:47:00,
2013-02-16 15:52:00,34.1,22.8,29.78,North,358,0.0,4.0,63,0.00,,FEW030,0.00,VWS V14.01,2013-02-16 20:52:00,
2013-02-16 15:57:00,34.3,23.4,29.78,North,1,0.0,4.0,64,0.00,,FEW032,0.00,VWS V14.01,2013-02-16 20:57:00,
2013-02-16 16:02:00,34.1,22.8,29.77,North,4,5.0,8.0,63,0.00,,FEW032,0.00,VWS V14.01,2013-02-16 21:02:00,
2013-02-16 16:07:00,34.0,22.7,29.77,North,9,4.0,7.0,63,0.00,,FEW032,0.00,VWS V14.01,2013-02-16 21:07:00,
2013-02-16 16:12:00,33.8,22.9,29.77,North,3,0.0,6.0,64,0.00,,FEW032,0.00,VWS V14.01,2013-02-16 21:12:00,
2013-02-16 16:17:00,33.8,22.9,29.78,North,358,1.0,5.0,64,0.00,,FEW032,0.00,VWS V14.01,2013-02-16 21:17:00,
2013-02-16 16:22:00,33.8,22.9,29.78,North,358,2.0,5.0,64,0.00,,FEW032,0.00,VWS V14.01,2013-02-16 21:22:00,
2013-02-16 16:27:00,33.7,22.8,29.78,NNW,333,2.0,2.0,64,0.00,,FEW032,0.00,VWS V14.01,2013-02-16 21:27:00,
2013-02-16 16:32:00,33.7,22.5,29.78,NNE,30,5.0,5.0,63,0.00,,FEW032,0.00,VWS V14.01,2013-02-16 21:32:00,
2013-02-16 16:37:00,33.5,21.9,29.78,North,0,7.0,7.0,62,0.00,,CLR,0.00,VWS V14.01,2013-02-16 21:37:00,
2013-02-16 16:42:00,33.5,22.3,29.78,North,6,0.0,5.0,63,0.00,,CLR,0.00,VWS V14.01,2013-02-16 21:42:00,
2013-02-16 16:46:00,33.4,21.8,29.78,North,0,4.0,4.0,62,0.00,,CLR,0.00,VWS V14.01,2013-02-16 21:46:00,
2013-02-16 16:51:00,33.2,22.4,29.78,North,4,0.0,1.0,64,0.00,,CLR,0.00,VWS V14.01,2013-02-16 21:51:00,
2013-02-16 16:56:00,33.1,21.5,29.78,North,358,5.0,6.0,62,0.00,,CLR,0.00,VWS V14.01,2013-02-16 21:56:00,
2013-02-16 17:01:00,33.1,21.5,29.78,North,358,6.0,6.0,62,0.00,,CLR,0.00,VWS V14.01,2013-02-16 22:01:00,
2013-02-16 17:06:00,32.9,20.9,29.78,North,0,2.0,5.0,61,0.00,,CLR,0.00,VWS V14.01,2013-02-16 22:06:00,
2013-02-16 17:11:00,32.8,21.2,29.78,NNW,341,0.0,2.0,62,0.00,,CLR,0.00,VWS V14.01,2013-02-16 22:11:00,
2013-02-16 17:16:00,32.8,20.9,29.78,North,6,5.0,5.0,61,0.00,,CLR,0.00,VWS V14.01,2013-02-16 22:16:00,
2013-02-16 17:21:00,32.7,21.1,29.78,North,0,3.0,8.0,62,0.00,,CLR,0.00,VWS V14.01,2013-02-16 22:21:00,
2013-02-16 17:26:00,32.7,21.1,29.78,North,0,2.0,5.0,62,0.00,,CLR,0.00,VWS V14.01,2013-02-16 22:26:00,
2013-02-16 17:31:00,32.5,20.2,29.78,North,358,0.0,5.0,60,0.00,,CLR,0.00,VWS V14.01,2013-02-16 22:31:00,
2013-02-16 17:36:00,32.5,20.9,29.78,North,1,1.0,4.0,62,0.00,,CLR,0.00,VWS V14.01,2013-02-16 22:36:00,
2013-02-16 17:41:00,32.4,21.2,29.78,North,358,0.0,0.0,63,0.00,,CLR,0.00,VWS V14.01,2013-02-16 22:41:00,
2013-02-16 17:46:00,32.2,20.7,29.78,North,358,0.0,0.0,62,0.00,,CLR,0.00,VWS V14.01,2013-02-16 22:46:00,
2013-02-16 17:51:00,32.2,20.3,29.78,North,358,0.0,2.0,61,0.00,,CLR,0.00,VWS V14.01,2013-02-16 22:51:00,
2013-02-16 17:56:00,32.2,20.7,29.78,NW,316,0.0,2.0,62,0.00,,CLR,0.00,VWS V14.01,2013-02-16 22:56:00,
2013-02-16 18:01:00,32.1,20.9,29.78,North,349,2.0,5.0,63,0.00,,CLR,0.00,VWS V14.01,2013-02-16 23:01:00,
2013-02-16 18:06:00,32.1,20.6,29.78,NNW,336,0.0,1.0,62,0.00,,CLR,0.00,VWS V14.01,2013-02-16 23:06:00,
2013-02-16 18:11:00,32.1,20.6,29.78,North,0,0.0,0.0,62,0.00,,CLR,0.00,VWS V14.01,2013-02-16 23:11:00,
2013-02-16 18:16:00,32.1,20.2,29.78,North,0,0.0,4.0,61,0.00,,CLR,0.00,VWS V14.01,2013-02-16 23:16:00,
2013-02-16 18:21:00,32.1,19.4,29.78,North,358,0.0,2.0,59,0.00,,CLR,0.00,VWS V14.01,2013-02-16 23:21:00,
2013-02-16 18:26:00,32.1,20.2,29.78,North,0,3.0,5.0,61,0.00,,CLR,0.00,VWS V14.01,2013-02-16 23:26:00,
2013-02-16 18:31:00,31.9,19.2,29.77,North,0,0.0,4.0,59,0.00,,CLR,0.00,VWS V14.01,2013-02-16 23:31:00,
2013-02-16 18:36:00,31.9,19.2,29.77,NW,324,0.0,0.0,59,0.00,,CLR,0.00,VWS V14.01,2013-02-16 23:36:00,
2013-02-16 18:41:00,31.9,19.6,29.77,NNE,12,2.0,4.0,60,0.00,,CLR,0.00,VWS V14.01,2013-02-16 23:41:00,
2013-02-16 18:46:00,31.8,19.1,29.77,North,357,2.0,5.0,59,0.00,,CLR,0.00,VWS V14.01,2013-02-16 23:46:00,
2013-02-16 18:51:00,31.8,19.5,29.77,North,357,0.0,1.0,60,0.00,,CLR,0.00,VWS V14.01,2013-02-16 23:51:00,
2013-02-16 18:56:00,31.8,19.9,29.77,NNW,342,1.0,1.0,61,0.00,,CLR,0.00,VWS V14.01,2013-02-16 23:56:00,
2013-02-16 19:01:00,31.6,18.9,29.77,North,358,6.0,8.0,59,0.00,,CLR,0.00,VWS V14.01,2013-02-17 00:01:00,
2013-02-16 19:06:00,31.6,19.3,29.77,North,0,1.0,1.0,60,0.00,,CLR,0.00,VWS V14.01,2013-02-17 00:06:00,
2013-02-16 19:11:00,31.6,18.9,29.77,North,357,0.0,0.0,59,0.00,,CLR,0.00,VWS V14.01,2013-02-17 00:11:00,
2013-02-16 19:16:00,31.6,18.5,29.75,NNW,346,0.0,7.0,58,0.00,,CLR,0.00,VWS V14.01,2013-02-17 00:16:00,
2013-02-16 19:21:00,31.6,18.5,29.75,North,358,4.0,4.0,58,0.00,,CLR,0.00,VWS V14.01,2013-02-17 00:21:00,
2013-02-16 19:26:00,31.5,18.4,29.75,North,0,4.0,5.0,58,0.00,,CLR,0.00,VWS V14.01,2013-02-17 00:26:00,
2013-02-16 19:31:00,31.5,18.8,29.75,North,0,4.0,4.0,59,0.00,,CLR,0.00,VWS V14.01,2013-02-17 00:31:00,
2013-02-16 19:36:00,31.5,18.0,29.75,NNW,336,0.0,4.0,57,0.00,,CLR,0.00,VWS V14.01,2013-02-17 00:36:00,
2013-02-16 19:41:00,31.5,17.6,29.75,North,350,1.0,4.0,56,0.00,,CLR,0.00,VWS V14.01,2013-02-17 00:41:00,
2013-02-16 19:46:00,31.5,18.0,29.76,North,0,2.0,2.0,57,0.00,,CLR,0.00,VWS V14.01,2013-02-17 00:46:00,
2013-02-16 19:51:00,31.5,18.0,29.76,North,6,0.0,4.0,57,0.00,,CLR,0.00,VWS V14.01,2013-02-17 00:51:00,
2013-02-16 19:56:00,31.3,18.2,29.76,WNW,296,0.0,0.0,58,0.00,,CLR,0.00,VWS V14.01,2013-02-17 00:56:00,
2013-02-16 20:02:00,31.2,18.2,29.75,North,4,4.0,5.0,58,0.00,,CLR,0.00,VWS V14.01,2013-02-17 01:02:00,
2013-02-16 20:07:00,31.2,17.8,29.75,NNE,32,1.0,7.0,57,0.00,,CLR,0.00,VWS V14.01,2013-02-17 01:07:00,
2013-02-16 20:12:00,31.2,17.8,29.75,North,0,0.0,7.0,57,0.00,,CLR,0.00,VWS V14.01,2013-02-17 01:12:00,
2013-02-16 20:17:00,31.0,17.2,29.75,North,0,6.0,6.0,56,0.00,,CLR,0.00,VWS V14.01,2013-02-17 01:17:00,
2013-02-16 20:22:00,31.0,17.2,29.75,North,0,1.0,9.0,56,0.00,,CLR,0.00,VWS V14.01,2013-02-17 01:22:00,
2013-02-16 20:27:00,31.0,17.2,29.75,NE,42,6.0,7.0,56,0.00,,CLR,0.00,VWS V14.01,2013-02-17 01:27:00,
2013-02-16 20:32:00,31.0,16.7,29.75,North,3,1.0,8.0,55,0.00,,CLR,0.00,VWS V14.01,2013-02-17 01:32:00,
2013-02-16 20:37:00,31.0,17.2,29.75,North,358,6.0,6.0,56,0.00,,CLR,0.00,VWS V14.01,2013-02-17 01:37:00,
2013-02-16 20:42:00,30.9,17.1,29.75,North,358,5.0,10.0,56,0.00,,CLR,0.00,VWS V14.01,2013-02-17 01:42:00,
2013-02-16 20:47:00,30.9,16.6,29.75,North,358,0.0,6.0,55,0.00,,CLR,0.00,VWS V14.01,2013-02-17 01:47:00,
2013-02-16 20:52:00,30.9,16.2,29.75,North,4,0.0,4.0,54,0.00,,CLR,0.00,VWS V14.01,2013-02-17 01:52:00,
2013-02-16 20:57:00,30.7,16.0,29.75,NW,315,1.0,6.0,54,0.00,,CLR,0.00,VWS V14.01,2013-02-17 01:57:00,
2013-02-16 21:02:00,30.7,16.0,29.75,North,0,2.0,8.0,54,0.00,,CLR,0.00,VWS V14.01,2013-02-17 02:02:00,
2013-02-16 21:07:00,30.7,16.0,29.75,North,0,2.0,9.0,54,0.00,,CLR,0.00,VWS V14.01,2013-02-17 02:07:00,
2013-02-16 21:12:00,30.7,16.0,29.75,North,0,2.0,6.0,54,0.00,,CLR,0.00,VWS V14.01,2013-02-17 02:12:00,
2013-02-16 21:17:00,30.6,16.4,29.75,North,358,0.0,2.0,55,0.00,,CLR,0.00,VWS V14.01,2013-02-17 02:17:00,
2013-02-16 21:22:00,30.6,15.5,29.75,NNW,345,1.0,7.0,53,0.00,,CLR,0.00,VWS V14.01,2013-02-17 02:22:00,
2013-02-16 21:27:00,30.6,15.9,29.75,North,358,15.0,15.0,54,0.00,,CLR,0.00,VWS V14.01,2013-02-17 02:27:00,
2013-02-16 21:32:00,30.6,15.5,29.75,North,358,5.0,8.0,53,0.00,,CLR,0.00,VWS V14.01,2013-02-17 02:32:00,
2013-02-16 21:37:00,30.4,16.2,29.75,North,0,9.0,9.0,55,0.00,,CLR,0.00,VWS V14.01,2013-02-17 02:37:00,
2013-02-16 21:42:00,30.3,16.1,29.75,NNE,19,6.0,6.0,55,0.00,,CLR,0.00,VWS V14.01,2013-02-17 02:42:00,
2013-02-16 21:47:00,30.3,16.1,29.74,North,358,5.0,6.0,55,0.00,,CLR,0.00,VWS V14.01,2013-02-17 02:47:00,
2013-02-16 21:52:00,30.1,15.9,29.74,NW,321,3.0,10.0,55,0.00,,CLR,0.00,VWS V14.01,2013-02-17 02:52:00,
2013-02-16 21:57:00,30.1,16.3,29.74,North,352,0.0,6.0,56,0.00,,CLR,0.00,VWS V14.01,2013-02-17 02:57:00,
2013-02-16 22:02:00,30.0,16.6,29.73,NNE,16,3.0,9.0,57,0.00,,CLR,0.00,VWS V14.01,2013-02-17 03:02:00,
2013-02-16 22:07:00,30.0,16.6,29.73,North,8,5.0,6.0,57,0.00,,CLR,0.00,VWS V14.01,2013-02-17 03:07:00,
2013-02-16 22:12:00,30.0,16.2,29.73,North,0,2.0,6.0,56,0.00,,CLR,0.00,VWS V14.01,2013-02-17 03:12:00,
2013-02-16 22:17:00,29.8,15.6,29.72,North,352,2.0,9.0,55,0.00,,CLR,0.00,VWS V14.01,2013-02-17 03:17:00,
2013-02-16 22:22:00,29.8,15.6,29.72,North,4,0.0,8.0,55,0.00,,CLR,0.00,VWS V14.01,2013-02-17 03:22:00,
2013-02-16 22:27:00,29.8,16.4,29.72,NNE,21,4.0,7.0,57,0.00,,CLR,0.00,VWS V14.01,2013-02-17 03:27:00,
2013-02-16 22:32:00,29.7,16.4,29.72,North,358,5.0,5.0,57,0.00,,CLR,0.00,VWS V14.01,2013-02-17 03:32:00,
2013-02-16 22:37:00,29.7,16.8,29.72,NNE,20,6.0,6.0,58,0.00,,CLR,0.00,VWS V14.01,2013-02-17 03:37:00,
2013-02-16 22:42:00,29.7,16.4,29.72,NNE,14,7.0,7.0,57,0.00,,CLR,0.00,VWS V14.01,2013-02-17 03:42:00,
2013-02-16 22:47:00,29.5,15.8,29.72,NW,307,6.0,13.0,56,0.00,,CLR,0.00,VWS V14.01,2013-02-17 03:47:00,
2013-02-16 22:52:00,29.5,15.3,29.72,North,0,9.0,10.0,55,0.00,,CLR,0.00,VWS V14.01,2013-02-17 03:52:00,
2013-02-16 22:57:00,29.4,16.1,29.72,North,0,0.0,5.0,57,0.00,,CLR,0.00,VWS V14.01,2013-02-17 03:57:00,
2013-02-16 23:02:00,29.4,15.7,29.71,North,357,6.0,7.0,56,0.00,,CLR,0.00,VWS V14.01,2013-02-17 04:02:00,
2013-02-16 23:07:00,29.4,15.2,29.71,NNW,342,5.0,9.0,55,0.00,,CLR,0.00,VWS V14.01,2013-02-17 04:07:00,
2013-02-16 23:12:00,29.4,14.4,29.71,North,358,9.0,9.0,53,0.00,,CLR,0.00,VWS V14.01,2013-02-17 04:12:00,
2013-02-16 23:17:00,29.3,14.3,29.71,NNW,348,1.0,11.0,53,0.00,,CLR,0.00,VWS V14.01,2013-02-17 04:17:00,
2013-02-16 23:22:00,29.1,13.7,29.71,NNW,332,0.0,12.0,52,0.00,,CLR,0.00,VWS V14.01,2013-02-17 04:22:00,
2013-02-16 23:27:00,29.1,13.2,29.71,NW,316,2.0,8.0,51,0.00,,CLR,0.00,VWS V14.01,2013-02-17 04:27:00,
2013-02-16 23:32:00,29.1,13.2,29.70,NNW,340,2.0,8.0,51,0.00,,CLR,0.00,VWS V14.01,2013-02-17 04:32:00,
2013-02-16 23:37:00,29.0,11.8,29.70,NNW,341,8.0,14.0,48,0.00,,BKN100,0.00,VWS V14.01,2013-02-17 04:37:00,
2013-02-16 23:42:00,29.0,11.3,29.70,North,0,5.0,6.0,47,0.00,,BKN100,0.00,VWS V14.01,2013-02-17 04:42:00,
2013-02-16 23:47:00,28.8,11.1,29.69,North,356,2.0,4.0,47,0.00,,BKN100,0.00,VWS V14.01,2013-02-17 04:47:00,
2013-02-16 23:52:00,28.7,10.6,29.69,North,0,5.0,8.0,46,0.00,,BKN100,0.00,VWS V14.01,2013-02-17 04:52:00,
2013-02-16 23:57:00,28.7,10.1,29.69,NNW,341,5.0,9.0,45,0.00,,BKN100,0.00,VWS V14.01,2013-02-17 04:57:00,